Hourly Data Report for December 02, 2019

PINAWA
MANITOBA
Current Station Operator: ECCC - MSC

50°10'38.020" N
96°03'53.000" W
268.00 m
503B1ER
71448
WEA

Download Data

Hourly Data (December 2019)
Hourly Data Report for December 2, 2019
TIME
LST
Temp Definition
°C
Dew Point Definition
°C
Rel Hum Definition
%
Precip. Amount Definition
mm

Wind Dir Definition
10's deg

Wind Spd Definition
km/h
Visibility Definition
km
Stn Press Definition
kPa
Hmdx Definition


Wind Chill Definition


Weather Definition


00:00 -11.7 LegendMM LegendMM 0.0 22 4   98.56   -14 LegendNANA
01:00 -11.3 LegendMM LegendMM 0.0 17 6   98.50   -15 LegendNANA
02:00 -10.9 LegendMM LegendMM 0.0 18 5   98.46   -14 LegendNANA
03:00 -10.8 LegendMM LegendMM 0.0 17 7   98.38   -15 LegendNANA
04:00 -10.5 LegendMM LegendMM 0.0 17 8   98.28   -15 LegendNANA
05:00 -10.7 LegendMM LegendMM 0.0 17 8   98.19   -15 LegendNANA
06:00 -10.3 LegendMM LegendMM 0.0 17 10   98.06   -16 LegendNANA
07:00 -10.0 LegendMM LegendMM 0.0 16 12   97.95   -16 LegendNANA
08:00 -9.7 LegendMM LegendMM 0.0 16 10   97.88   -15 LegendNANA
09:00 -8.9 LegendMM LegendMM 0.0 17 13   97.78   -15 LegendNANA
10:00 -6.9 LegendMM LegendMM 0.0 17 10   97.73   -12 LegendNANA
11:00 -4.3 LegendMM LegendMM 0.0 18 7   97.66   -7 LegendNANA
12:00 -2.7 LegendMM LegendMM 0.0 19 10   97.54   -7 LegendNANA
13:00 -2.1 LegendMM LegendMM 0.0 20 8   97.45   -5 LegendNANA
14:00 -2.2 LegendMM LegendMM 0.0 18 9   97.33   -6 LegendNANA
15:00 -1.6 LegendMM LegendMM 0.0 19 9   97.25   -5 LegendNANA
16:00 -1.5 LegendMM LegendMM 0.0 19 6   97.22   -4 LegendNANA
17:00 -2.8 LegendMM LegendMM 0.0 18 7   97.14   -6 LegendNANA
18:00 -3.8 LegendMM LegendMM 0.0 18 9   97.08   -8 LegendNANA
19:00 -4.5 LegendMM LegendMM 0.0 19 7   97.05   -8 LegendNANA
20:00 -5.0 LegendMM LegendMM 0.0 19 6   97.00   -8 LegendNANA
21:00 -5.0 LegendMM LegendMM 0.0 19 4   96.96   -7 LegendNANA
22:00 -4.7 LegendMM LegendMM 0.0 21 4   96.91   -6 LegendNANA
23:00 -5.3 LegendMM LegendMM 0.0 21 5   96.89   -8 LegendNANA

Notes on Data Quality.

Legend

  • E = Estimated
  • M = Missing
  • NA = Not Available*
  • [empty] = Indicates an unobserved value
Date modified: